Theta_e
306 307 308 308 308 308 309 309 310 310 310 311 312 313 310 306 305 303 305 306 299 295 301 305 303 299 300 300 297 303 301 301 300 291 291 291 290 291 289 291 287 285 284 286 288 286 283 290 289 283 286 288 293 296
305 306 306 306 306 306 308 308 309 310 310 310 312 312 312 307 306 305 299 303 304 297 301 308 306 305 303 304 301 303 301 301 301 294 293 293 291 290 288 286 294 287 288 285 285 285 291 291 285 289 294 293 294 295
304 304 304 304 304 305 306 307 309 309 310 310 311 312 313 307 306 305 300 301 301 295 301 305 304 309 311 309 310 300 304 307 305 305 296 295 290 293 286 288 290 290 292 287 286 289 288 289 289 289 294 295 296 297
302 303 303 303 304 304 304 306 307 309 309 310 310 311 312 308 305 305 300 301 298 295 292 302 310 307 311 311 310 310 308 308 306 305 298 295 291 296 291 290 289 290 291 287 288 290 288 291 289 289 294 296 295 295
301 302 302 303 303 303 304 305 306 307 309 310 311 312 310 307 305 305 303 302 303 295 295 298 304 309 311 310 308 310 308 304 299 300 297 294 297 294 296 293 289 290 287 285 285 286 285 285 288 292 293 293 294 293
300 301 301 302 303 303 303 303 305 307 308 310 311 312 308 305 304 302 294 305 305 302 294 294 306 305 308 309 309 309 306 304 302 300 298 299 301 296 290 290 290 289 291 289 287 286 285 287 289 295 292 293 294 293
299 300 301 302 303 304 304 303 305 306 308 309 310 309 305 304 303 295 294 299 303 302 294 293 300 307 307 308 308 309 307 306 304 300 298 297 298 296 292 288 290 292 292 291 291 289 287 291 287 293 293 294 294 293
298 299 299 300 302 304 305 305 306 307 308 309 307 305 304 304 302 297 305 301 303 297 299 293 298 301 309 303 302 310 305 304 302 299 299 297 300 300 290 293 294 293 294 292 291 293 292 293 293 293 294 293 291 291
298 298 299 299 301 303 304 305 306 307 308 305 304 304 301 297 296 300 304 303 303 299 292 294 295 295 308 303 305 307 307 298 303 297 297 301 298 295 296 296 294 293 292 292 292 292 292 292 291 292 291 290 288 287
298 298 299 299 300 302 304 305 306 307 305 304 301 294 292 301 305 305 299 294 294 295 295 291 300 296 304 302 300 302 305 299 293 297 304 298 296 301 298 297 296 294 294 293 291 290 290 290 290 291 290 290 289 289
298 298 299 299 299 301 303 305 306 304 301 298 293 294 303 306 301 298 293 289 290 289 293 296 298 296 305 298 298 303 301 302 292 297 296 293 294 298 299 296 296 295 295 294 296 295 293 292 291 290 290 290 290 290
299 299 299 299 299 300 303 304 305 302 299 298 299 302 301 297 294 291 290 293 293 292 299 300 301 302 304 309 301 301 296 300 290 304 295 293 299 298 297 295 296 295 294 294 295 295 294 292 292 291 291 291 291 292
298 299 299 299 299 300 302 303 305 303 302 301 297 293 293 292 286 287 288 292 293 298 301 302 300 304 305 305 301 300 293 295 304 296 292 299 301 299 296 295 294 296 296 295 294 294 294 292 292 292 291 292 293 293
298 299 299 299 299 299 301 302 304 303 301 293 290 285 289 289 292 295 297 297 301 303 302 301 303 302 302 299 299 293 299 301 293 290 292 300 302 300 296 296 295 294 294 293 293 293 293 293 292 292 292 293 294 294
299 299 299 299 300 299 301 302 304 303 296 290 290 287 292 299 300 302 302 301 304 302 303 302 303 301 300 296 299 297 293 290 294 294 300 302 303 300 297 296 295 295 295 294 294 293 293 293 293 292 294 295 295 295
298 298 299 300 300 300 302 303 300 299 294 290 289 289 297 298 299 300 300 300 301 300 303 304 299 296 295 296 293 292 290 290 297 302 302 304 303 300 299 297 297 297 297 296 297 296 295 295 294 294 295 295 296 296
298 296 299 299 301 302 301 297 295 292 290 289 290 297 298 298 298 300 299 297 302 299 297 299 294 293 300 295 293 299 297 302 302 303 305 306 304 301 302 300 299 299 298 298 298 298 298 299 298 296 296 297 298 298
297 299 300 300 300 300 297 296 292 289 286 292 293 297 300 301 298 298 300 301 299 299 300 296 301 296 294 291 295 299 302 303 305 306 306 306 306 304 303 302 301 301 300 300 300 299 298 297 296 295 296 296 297 297
298 298 299 300 299 295 291 290 292 287 292 297 298 300 300 299 300 300 300 302 304 306 303 300 297 296 297 299 300 302 304 304 306 307 307 307 306 305 304 303 302 301 301 300 300 299 299 298 298 297 297 296 294 295
298 298 298 298 299 292 288 289 294 291 292 297 299 298 296 296 299 298 299 300 301 302 299 297 297 301 301 302 306 306 306 307 306 303 303 304 305 305 304 303 302 303 302 301 300 296 298 297 297 298 298 297 297 297
297 298 298 297 294 293 290 290 292 295 297 294 298 296 295 299 297 295 297 301 297 298 299 301 302 306 307 309 308 310 309 309 307 306 302 302 304 304 303 303 303 302 300 299 298 296 295 297 298 298 297 297 298 299
297 299 294 295 290 291 289 293 294 297 296 295 296 297 295 294 295 297 299 296 296 300 303 304 304 305 306 306 307 309 309 309 310 306 300 301 303 302 302 303 301 300 300 299 299 297 296 298 298 298 297 297 296 299
297 295 292 291 287 286 289 298 292 294 290 293 296 293 294 295 298 300 295 299 300 304 304 306 305 307 308 307 308 309 309 309 307 307 306 306 306 305 304 304 303 301 300 300 300 299 298 294 295 296 296 296 296 296
297 290 288 288 290 288 293 289 291 291 293 292 292 290 293 295 300 297 294 297 302 304 304 304 304 305 306 307 305 306 309 309 307 307 307 306 305 303 305 304 304 304 303 302 300 299 299 297 294 295 295 295 295 294
287 287 288 286 291 289 288 289 289 290 289 291 289 290 293 297 293 293 294 299 303 303 303 306 306 305 304 304 304 306 310 308 306 305 307 308 306 305 303 303 304 305 305 302 299 299 298 297 296 296 296 296 296 296
285 289 287 289 290 289 289 287 288 288 290 289 290 294 296 293 291 291 296 302 302 304 304 305 303 304 304 307 306 307 307 309 309 307 307 307 306 304 302 301 300 302 306 304 301 299 298 297 297 297 297 296 290 297
284 287 292 296 294 293 292 293 293 291 290 289 292 292 292 289 289 296 304 306 308 310 312 310 308 306 304 306 308 310 310 311 310 309 309 309 308 308 306 303 302 304 306 305 303 301 299 298 299 299 299 299 299 299
290 290 287 290 291 293 289 291 290 290 292 295 295 291 290 291 294 304 306 309 310 312 311 311 311 309 309 309 309 309 309 310 312 312 312 312 310 309 309 309 308 294 306 307 304 302 302 301 301 301 301 301 301 302
290 293 293 289 291 291 292 292 293 298 301 298 295 294 295 303 306 307 308 311 312 311 309 308 309 311 310 310 309 309 309 308 305 303 301 303 306 308 310 310 308 308 307 305 287 295 302 302 303 302 302 302 304 305
291 295 292 291 289 290 295 299 298 302 304 304 303 302 302 304 308 312 311 309 308 308 310 309 309 308 306 305 304 305 309 310 308 305 302 301 303 309 310 311 308 308 305 304 303 303 287 299 297 305 304 304 304 304
296 296 292 293 292 296 297 299 302 302 301 301 303 301 299 302 307 309 308 309 310 311 309 307 307 308 306 305 304 303 303 309 309 308 307 307 308 310 312 311 310 308 307 308 306 304 303 302 304 304 303 303 303 301
293 292 292 289 292 297 300 297 298 298 299 300 300 302 302 300 298 306 307 309 309 309 300 302 305 305 307 307 308 309 292 308 309 310 308 309 308 310 312 311 311 309 307 306 307 304 304 303 303 303 304 303 304 303
293 293 294 294 293 292 296 296 295 295 297 297 295 297 298 298 295 301 307 310 310 310 308 307 308 308 309 309 309 307 300 309 300 289 291 290 290 298 306 309 310 307 306 306 306 304 303 303 305 305 304 303 304 303
Wind_Speed
13 14 15 16 17 16 16 17 17 17 17 17 16 14 15 13 11 6 2 3 3 6 15 17 14 15 13 11 11 12 11 7 5 8 6 8 5 6 7 12 4 5 8 7 8 6 6 24 14 10 13 16 15 14
13 13 14 14 17 18 17 17 17 17 17 16 15 14 15 16 13 11 4 5 6 7 12 19 21 20 24 19 11 5 11 10 5 3 3 5 8 3 9 4 5 2 5 7 6 5 10 15 8 14 13 11 12 13
14 13 14 16 17 17 18 18 18 17 17 17 16 15 14 17 16 14 3 4 3 5 13 12 9 7 11 11 11 7 1 7 6 5 3 4 5 2 5 5 9 1 4 5 10 4 16 9 13 17 11 11 12 13
14 15 14 15 16 18 18 18 18 17 18 17 16 14 14 18 16 14 5 3 3 5 7 4 5 8 10 10 12 15 15 11 7 8 4 4 4 3 2 6 6 4 11 10 8 6 14 4 14 16 10 9 13 15
14 15 15 15 17 18 19 17 18 17 18 18 15 13 15 15 12 6 6 6 8 3 7 11 22 12 2 9 14 13 11 7 3 5 4 8 4 5 1 4 1 4 5 5 4 9 4 11 12 13 9 10 12 16
14 15 15 16 17 18 19 19 18 18 18 18 17 9 14 13 9 3 4 6 9 9 4 7 8 9 8 8 11 12 5 4 5 5 6 5 3 3 3 2 2 2 3 5 5 8 7 11 10 9 12 11 13 17
15 15 16 17 18 18 18 18 17 18 18 18 13 13 12 11 5 3 2 3 4 4 3 7 6 7 5 9 10 4 4 5 6 3 4 6 3 4 3 3 3 3 3 5 5 5 4 7 5 9 12 13 17 17
14 16 17 18 18 18 19 17 17 16 17 11 13 12 8 7 5 6 8 9 5 4 4 6 7 8 8 7 6 6 6 5 5 4 6 7 4 2 2 3 2 2 3 3 5 5 4 6 9 10 11 12 17 14
15 16 17 17 18 18 19 18 17 17 7 14 13 10 3 2 4 1 6 13 5 3 4 5 6 2 6 8 4 3 2 3 2 5 8 4 4 2 4 6 3 1 2 3 3 4 6 9 9 10 10 15 14 11
14 16 16 16 17 17 18 19 19 13 15 15 2 2 3 4 7 12 4 5 4 3 5 5 10 10 5 7 3 6 4 2 2 5 3 4 3 6 4 5 5 4 3 1 2 2 4 7 8 9 10 11 11 11
15 16 16 17 18 18 18 17 8 15 5 1 2 3 2 11 4 3 4 4 5 5 6 7 11 10 9 8 6 4 3 1 4 1 3 3 1 5 7 6 7 5 3 2 3 6 5 5 8 9 12 12 12 12
17 17 16 16 17 17 17 15 7 4 2 2 1 3 1 3 4 5 4 5 8 6 8 9 6 8 2 1 6 2 1 4 4 1 1 3 5 10 5 6 9 6 4 4 5 6 8 7 7 10 9 11 11 12
17 17 16 16 17 17 17 16 12 6 5 2 2 3 3 3 5 5 8 6 5 4 4 4 5 5 4 5 5 3 4 4 2 1 3 2 9 8 7 7 8 7 7 7 7 7 9 10 8 9 10 10 11 12
18 17 17 18 17 18 18 17 16 9 2 3 4 5 6 6 7 9 11 6 3 1 6 8 5 5 5 5 5 4 1 2 3 2 1 4 11 9 9 7 9 10 9 8 8 8 9 10 10 9 9 10 12 13
18 17 18 19 19 18 17 15 10 3 3 4 4 7 10 10 9 4 3 4 2 4 3 6 6 6 3 4 3 3 3 5 2 4 3 8 12 9 12 8 8 11 12 10 9 9 10 11 10 11 10 10 10 12
19 17 16 16 16 16 15 7 3 2 3 4 6 6 10 9 8 7 6 3 3 9 9 7 4 4 6 3 4 7 4 4 3 3 7 7 10 10 11 12 9 10 12 10 11 12 11 11 10 11 11 11 11 10
19 7 7 10 10 12 11 3 3 5 6 6 6 11 13 14 10 4 2 5 8 12 9 5 6 6 3 4 4 3 1 1 4 4 6 9 10 11 10 13 12 12 11 12 10 11 12 14 13 10 12 12 11 9
16 12 12 13 6 4 3 3 4 5 8 9 8 9 11 7 7 2 6 9 9 10 10 5 6 6 3 3 2 2 2 6 4 5 7 10 11 12 10 11 12 12 11 11 11 10 10 12 11 9 8 7 9 10
14 10 10 10 7 3 5 5 4 4 10 9 9 10 4 6 7 7 6 8 11 13 2 3 7 4 5 3 3 2 1 4 5 3 9 10 12 12 12 12 11 10 11 10 9 7 8 8 7 10 9 8 7 7
18 17 15 11 6 4 4 4 4 5 6 6 9 11 4 7 8 9 10 12 9 6 6 5 5 4 6 3 3 3 4 3 4 6 8 9 10 12 11 9 8 9 8 10 9 6 7 7 7 7 8 9 8 10
12 12 14 8 4 5 3 3 6 5 5 4 7 8 5 9 9 9 10 9 9 4 6 7 5 2 12 2 4 2 3 3 1 2 7 9 10 10 10 8 9 8 8 8 8 7 7 8 8 8 9 9 8 8
4 11 3 4 3 5 4 5 5 4 4 5 6 6 5 7 9 11 6 8 8 10 8 6 4 5 13 6 5 4 2 5 1 4 1 9 11 9 10 9 9 9 8 8 7 9 8 6 7 8 8 8 5 7
10 4 4 4 5 7 4 6 6 4 5 4 4 4 5 5 7 10 6 8 8 10 9 9 9 10 3 2 4 6 5 5 5 4 6 6 8 8 9 10 9 9 8 8 7 7 7 10 7 7 8 9 9 8
5 6 5 7 7 6 6 4 3 3 3 5 4 4 5 5 2 4 6 8 5 7 7 10 9 6 7 8 5 6 8 6 3 3 4 6 7 9 9 9 9 8 8 7 7 7 8 8 10 10 10 10 10 9
5 6 5 5 5 5 7 8 6 5 6 6 5 5 2 4 4 5 7 9 9 6 7 10 8 7 6 7 7 6 7 5 2 3 6 5 6 8 8 8 9 9 8 9 9 10 10 10 11 11 12 11 12 14
7 8 7 10 8 7 7 6 8 6 4 5 6 4 3 3 5 6 3 2 4 7 5 7 5 6 8 7 4 5 5 4 4 5 4 5 6 9 9 9 9 9 9 9 10 12 13 12 12 14 12 12 9 11
4 5 5 3 3 4 4 2 4 4 6 7 4 6 6 5 5 4 4 6 3 3 1 2 2 6 4 6 7 5 6 4 3 2 4 4 3 5 8 8 9 9 10 11 12 13 13 14 13 13 12 12 13 12
2 4 5 6 2 2 3 5 6 7 6 5 5 8 5 2 3 3 3 4 4 1 5 4 5 7 7 7 7 6 5 6 5 3 2 2 6 2 5 6 7 11 10 12 12 12 13 13 12 13 12 11 11 12
4 4 7 7 6 6 6 6 5 3 0 3 3 1 4 3 3 4 3 0 4 4 5 6 6 6 6 5 5 5 5 6 6 4 6 6 5 5 5 2 9 11 10 11 6 7 15 13 13 12 11 8 8 9
5 5 4 6 4 3 2 3 4 4 2 1 1 3 5 5 4 1 1 3 4 4 3 6 6 7 6 6 5 4 4 1 2 2 1 4 1 4 7 8 9 10 8 10 10 11 5 8 7 7 7 7 7 7
2 3 5 4 2 3 5 4 5 5 4 3 0 2 4 1 3 4 6 6 3 3 3 7 7 6 6 4 5 3 1 2 5 2 5 6 4 5 5 8 8 7 7 14 15 14 13 13 12 12 11 11 10 8
3 4 3 3 4 3 2 2 2 1 2 2 2 1 3 3 3 3 5 6 5 2 2 2 7 4 8 4 4 6 1 5 5 2 3 5 7 5 6 8 8 4 4 9 8 13 17 16 12 11 9 9 13 12
3 3 1 2 3 5 3 3 3 3 2 3 5 4 4 5 4 4 6 5 5 3 2 4 3 7 6 8 9 4 2 10 11 9 9 9 9 7 6 5 4 4 2 6 9 11 14 16 12 12 9 5 4 5
Wind_Direction
323 321 319 319 318 316 314 314 314 309 306 305 302 292 209 208 216 209 279 205 226 265 293 286 284 289 284 280 293 345 323 8 351 2 331 351 319 337 307 326 338 316 320 339 327 315 352 3 341 13 303 302 318 351
324 323 326 325 323 324 318 319 318 316 307 302 296 288 212 195 207 210 256 200 221 244 279 308 286 273 264 273 292 271 299 298 339 353 326 303 311 331 315 308 319 326 3 315 321 335 350 331 322 310 334 338 16 7
316 320 323 322 324 323 325 322 317 318 317 308 296 285 222 194 202 200 242 248 225 262 277 252 274 255 209 240 236 262 65 1 333 7 305 279 291 264 318 352 316 105 7 276 326 59 344 326 341 344 345 16 43 34
319 319 323 323 323 321 322 323 321 322 322 315 304 287 221 191 202 202 219 229 263 277 277 326 202 229 241 214 221 228 270 298 306 294 256 265 281 230 300 297 292 2 308 327 273 351 326 350 344 332 344 53 73 53
316 318 319 321 321 323 323 321 321 322 320 315 313 308 192 184 195 219 247 241 245 251 300 308 300 266 338 226 232 228 242 258 282 283 260 292 267 336 239 258 47 2 336 328 321 332 293 295 324 322 19 83 82 81
313 313 316 317 318 322 324 324 319 318 318 315 314 223 177 168 178 207 271 194 220 233 294 284 359 275 237 208 216 227 216 216 230 293 289 261 59 301 312 303 64 289 262 264 286 312 290 292 323 31 59 66 86 84
310 313 315 312 315 315 317 321 318 312 313 312 302 159 159 178 191 212 274 356 304 85 250 273 259 157 207 219 227 175 178 217 241 285 247 271 275 221 312 279 138 298 332 313 323 317 312 359 29 47 65 63 72 76
310 311 310 311 313 317 318 318 318 313 316 305 129 138 165 173 272 273 233 195 172 232 237 270 270 253 165 238 197 177 194 206 202 245 259 265 190 187 254 208 190 318 297 8 358 6 9 48 66 63 62 76 68 67
308 309 308 309 312 317 319 321 318 311 307 121 119 117 116 222 225 271 113 153 196 285 280 255 268 317 187 238 276 175 295 239 212 242 262 305 258 25 320 340 22 33 48 359 33 33 65 74 75 79 84 86 84 78
300 306 309 307 312 313 318 319 317 315 133 124 116 164 242 220 119 139 143 166 199 215 233 250 279 269 292 296 249 173 209 212 239 219 331 273 184 87 85 60 52 90 103 356 300 74 74 85 88 92 86 94 94 87
293 299 307 312 310 309 315 319 323 119 86 103 201 234 28 142 174 227 187 202 183 233 216 235 233 247 239 258 319 252 145 132 264 102 278 221 246 117 117 106 115 112 106 59 69 88 91 105 117 109 106 104 103 99
289 297 300 306 304 302 310 316 278 183 196 193 294 293 241 215 224 239 204 204 208 243 183 234 192 215 209 198 254 225 258 220 266 267 237 251 91 108 126 130 124 122 131 122 105 99 110 102 101 109 106 107 103 109
285 288 295 293 299 296 301 307 305 217 134 221 241 257 219 190 233 229 202 204 218 216 227 194 198 199 190 229 259 258 240 233 228 252 236 29 100 118 118 125 128 151 140 121 117 104 108 117 114 113 112 111 117 117
281 285 287 284 290 286 289 297 307 171 211 230 221 240 226 190 226 205 251 304 212 238 321 272 205 213 238 183 252 252 179 248 240 246 351 104 110 118 126 142 158 134 126 132 127 126 121 121 120 116 118 132 137 128
275 280 282 278 275 276 275 279 264 195 180 231 215 239 224 248 283 302 311 305 300 291 286 266 230 260 229 256 234 308 247 231 263 55 18 92 118 133 132 145 134 133 136 137 134 129 124 125 125 129 135 128 123 125
273 281 263 268 271 267 273 248 140 158 206 238 227 251 251 271 259 265 240 253 271 270 262 255 259 236 205 230 215 222 246 15 14 55 84 121 135 135 135 143 151 141 136 142 142 140 136 129 132 130 128 134 142 144
264 245 235 240 268 295 280 143 148 206 225 218 227 224 264 282 285 291 262 227 258 280 232 257 242 208 208 216 213 228 198 203 40 76 102 122 146 146 151 139 155 145 143 141 137 140 143 140 140 151 147 156 155 150
251 261 245 245 257 221 126 186 185 222 230 230 236 246 257 262 288 243 226 231 252 264 248 215 288 233 198 245 219 217 139 90 61 16 109 143 151 152 151 144 140 143 140 143 142 138 141 141 149 150 152 158 153 152
247 254 268 229 184 236 173 199 214 233 231 251 230 243 256 274 263 252 250 262 267 269 316 218 234 237 230 232 258 43 82 65 106 164 118 155 157 162 156 155 156 156 155 153 154 157 152 169 166 154 162 168 175 172
236 237 248 246 251 203 215 210 215 235 252 240 241 253 196 243 240 228 225 226 237 249 220 225 235 229 276 152 71 352 32 95 157 154 145 158 160 159 166 166 171 163 164 158 161 165 155 171 173 182 179 187 178 169
223 226 213 212 226 209 268 220 231 237 258 247 237 211 228 238 224 228 227 211 214 234 230 238 252 220 304 102 53 31 149 302 266 73 159 159 161 176 162 174 162 171 173 171 171 172 183 181 173 183 171 191 200 174
202 149 112 153 185 191 243 225 273 327 238 241 275 185 236 220 230 224 221 220 228 233 220 231 260 267 227 192 175 203 123 151 287 100 156 137 166 176 173 174 176 181 180 181 179 166 190 184 175 176 180 193 225 174
130 120 139 179 191 201 248 190 206 237 235 253 215 212 221 214 192 189 221 221 228 229 234 223 236 238 204 249 210 153 210 210 207 212 139 186 177 173 173 170 180 181 184 177 180 170 183 142 163 184 174 174 188 177
130 161 183 193 208 202 168 197 199 247 230 236 219 226 219 197 213 213 238 229 232 230 220 221 249 202 211 214 213 207 172 216 210 128 197 200 173 171 189 175 179 176 178 166 174 165 151 170 161 180 169 179 177 167
171 194 218 189 197 218 198 176 188 209 231 191 194 251 193 180 201 236 221 208 200 216 202 215 196 213 206 221 206 184 158 191 163 153 213 217 179 156 179 182 181 172 166 164 171 169 164 164 183 177 177 180 180 174
199 177 210 200 176 204 195 186 184 208 186 194 215 224 181 214 229 226 165 73 156 176 199 180 203 226 185 211 177 167 141 203 183 229 175 213 189 166 174 190 184 176 172 176 174 175 175 171 183 178 182 180 188 196
216 181 185 218 249 197 203 158 163 193 201 196 202 193 200 226 223 94 78 30 53 53 23 312 272 234 156 230 138 150 151 145 235 303 138 210 177 204 177 187 193 179 177 182 175 179 178 175 179 181 182 182 183 207
213 195 202 171 173 212 226 184 198 201 204 208 193 196 208 237 78 91 103 77 102 206 258 227 236 259 131 220 119 117 139 117 109 208 168 165 129 183 251 203 165 157 179 182 177 180 182 182 187 189 196 201 201 199
218 173 160 161 193 201 212 224 216 171 177 226 208 187 73 65 95 114 91 76 176 200 197 176 179 205 131 117 131 156 142 184 170 172 221 197 203 207 206 236 159 175 186 166 108 184 192 191 194 195 200 210 220 214
169 171 175 172 201 217 169 58 72 79 44 59 35 131 104 101 104 109 320 27 50 34 231 134 157 171 160 146 142 143 174 173 328 267 322 32 62 228 182 183 196 179 169 161 166 195 146 170 147 182 199 207 217 219
187 193 176 169 141 94 92 111 100 128 125 98 132 108 102 222 79 33 19 354 2 244 240 151 168 153 154 148 148 180 214 196 117 87 347 332 304 133 192 188 193 176 208 190 200 189 180 202 197 202 202 218 219 219
184 219 186 153 125 132 175 113 90 93 115 136 129 125 145 162 128 75 10 340 310 176 193 228 122 151 128 178 160 127 334 57 106 95 351 339 347 356 179 176 162 120 211 206 214 192 183 196 210 200 209 229 239 212
180 175 231 136 169 176 175 177 205 122 59 52 50 354 357 7 58 25 335 327 312 256 142 41 81 120 102 71 77 96 60 69 75 77 74 62 57 77 93 105 117 96 23 299 255 207 196 196 201 205 208 261 207 193